K0VXP-1 Weather Reports


time (UTC)temp
F
wind
direction
speed
knots
gust
knots
rain 1hr
in
rain 24hr
in
rain mn
in
humidity
%
barometer
mb
20260504231530 46 174 4.3 7.8 0.03 0.27 0.27 81 1013.8
20260504230030 47 123 1.7 7.0 0.00 0.24 0.24 82 1013.5
20260504224531 47 129 3.5 7.8 0.00 0.24 0.24 81 1013.4
20260504223030 47 134 7.0 13.0 0.00 0.24 0.24 82 1013.6
20260504221528 47 143 6.1 8.7 0.00 0.24 0.24 83 1013.8
20260504220030 46 122 6.1 10.4 0.00 0.24 0.24 86 1014.1
20260504214535 45 115 7.0 11.3 0.00 0.24 0.24 88 1014.4
20260504213031 45 171 7.8 13.9 0.04 0.24 0.24 86 1014.8
20260504211531 48 130 2.6 7.8 0.04 0.24 0.24 89 1014.7
20260504210032 47 61 5.2 14.8 0.09 0.24 0.24 90 1014.6
20260504204531 44 99 6.1 9.6 0.09 0.24 0.24 87 1014.8
20260504203032 44 321 2.6 5.2 0.05 0.20 0.20 85 1015.7
20260504201532 45 311 5.2 8.7 0.05 0.20 0.20 80 1015.5
20260504200040 47 251 3.5 9.6 0.00 0.15 0.15 74 1015.2
20260504194536 49 98 2.6 7.8 0.00 0.15 0.15 72 1014.9
20260504193032 50 83 3.5 8.7 0.01 0.15 0.15 76 1015.1
20260504191543 47 5 4.3 8.7 0.04 0.15 0.15 80 1015.5
20260504190031 45 309 3.5 6.1 0.07 0.15 0.15 81 1015.9
20260504184540 45 69 4.3 9.6 0.12 0.15 0.15 79 1016.0
20260504183040 45 105 4.3 8.7 0.14 0.14 0.14 81 1015.8
20260504181534 43 88 2.6 13.9 0.11 0.11 0.11 83 1016.1
20260504180030 42 121 8.7 16.5 0.08 0.08 0.08 82 1016.4
20260504174531 42 121 6.1 12.2 0.03 0.03 0.03 78 1016.4
20260504173032 50 170 14.8 24.3 0.00 0.00 0.00 57 1016.1
20260504171532 55 239 1.7 4.3 0.00 0.00 0.00 47 1015.9
20260504081531 42 134 4.3 11.3 0.00 0.00 0.00 51 1016.5
20260504044540 44 78 4.3 7.0 0.00 0.00 0.00 45 1017.6
20260504043032 45 71 4.3 7.0 0.00 0.00 0.00 44 1017.6
20260504041531 45 78 4.3 8.7 0.00 0.00 0.00 44 1017.8
20260504040030 45 69 5.2 7.8 0.00 0.00 0.00 43 1017.7
20260504034551 46 65 5.2 7.8 0.00 0.00 0.00 43 1017.7
20260504033029 46 78 4.3 7.0 0.00 0.00 0.00 41 1017.6
20260504031532 47 68 5.2 8.7 0.00 0.00 0.00 40 1017.5
20260504030042 48 70 5.2 7.8 0.00 0.00 0.00 39 1017.5
20260504024530 49 74 4.3 7.0 0.00 0.00 0.00 37 1017.3
20260504023033 50 59 3.5 7.0 0.00 0.00 0.00 35 1017.1
20260504021534 51 37 2.6 4.3 0.00 0.00 0.00 34 1017.1
20260504020031 53 333 3.5 5.2 0.00 0.00 0.00 32 1017.1
20260504014541 56 293 3.5 7.0 0.00 0.00 0.00 29 1016.9
20260504013033 57 273 4.3 9.6 0.00 0.00 0.00 26 1016.9
20260504011528 59 265 5.2 11.3 0.00 0.00 0.00 24 1016.9
20260504010030 61 249 7.8 13.9 0.00 0.00 0.00 23 1017.0
20260504004533 62 244 9.6 15.6 0.00 0.00 0.00 23 1017.0
20260504003036 62 254 6.1 15.6 0.00 0.00 0.00 23 1017.0
20260504001532 63 234 10.4 13.9 0.00 0.00 0.00 23 1017.0
20260504000030 64 242 7.0 18.2 0.00 0.00 0.00 23 1017.1
20260503234538 61 212 7.8 13.9 0.00 0.00 0.00 25 1017.3
20260503233028 60 241 12.2 21.7 0.00 0.00 0.00 26 1017.5